Regional Weather Roundup
Issued by NWS Newport/Morehead, NC

Current Version | Previous Version | Text Only | Print | Product List | Glossary On
Versions: 1 2 3 4 5 6 7 8 9 10 11 12 13 14 15 16 17 18 19 20 21 22 23 24 25 26 27 28 29 30 31 32 33 34 35 36 37 38 39 40 41 42 43 44 45 46 47 48 49 50
788 ASUS42 KMHX 210613 RWRMHX WEATHER ROUNDUP FOR EASTERN NORTH CAROLINA NATIONAL WEATHER SERVICE NEWPORT/MOREHEAD CITY NC 200 AM EDT MON MAY 21 2018 NOTE: "FAIR" INDICATES FEW OR NO CLOUDS BELOW 12,000 FEET WITH NO SIGNIFICANT WEATHER AND/OR OBSTRUCTIONS TO VISIBILITY NCZ015>017-031-032-045>047-102-103-210700- NORTH COAST CITY SKY/WX TMP DP RH WIND PRES REMARKS EDENTON FAIR 76 72 87 SW8 30.11S ELIZABETH CITY FAIR 74 73 97 SW12 30.08F KITTY HAWK FAIR 73 69 86 SW5 30.08F MANTEO FAIR 73 70 88 SW10 30.10F $$ NCZ045>047-081-094-103-104-210700- CENTRAL COAST CITY SKY/WX TMP DP RH WIND PRES REMARKS FRISCO MOCLDY 73 71 93 SW10G17 30.13S $$ NCZ095-097-098-100-101-210700- SOUTHERN COAST CITY SKY/WX TMP DP RH WIND PRES REMARKS BEAUFORT FAIR 73 71 93 SW12 30.14S CEDAR ISLAND NOT AVBL JACKSONVILLE FAIR 71 70 96 SW3 30.13R PINEY ISLAND NOT AVBL WILMINGTON FAIR 72 69 90 W6 30.14S $$ NCZ011>013-027>030-043-044-078>080-089-090>093-098-210700- COASTAL PLAIN CITY SKY/WX TMP DP RH WIND PRES REMARKS AHOSKIE FAIR 72 72 100 S3 30.09S CLINTON FAIR 72 72 100 CALM 30.12F ELIZABETHTOWN FAIR 72 71 96 SW5 30.14R GOLDSBORO PTCLDY 73 70 88 S5 30.11S GREENVILLE FAIR 72 72 100 SW7 30.12S HAVELOCK NOT AVBL KENANSVILLE FAIR 70 70 100 CALM 30.13S KINSTON FAIR 72 70 93 S7 30.12F NEW BERN FAIR 69 69 100 SW7 30.13F RICHLANDS FAIR 70 69 97 S5 30.13S ROCKY MOUNT FAIR 73 71 93 SW3 30.10S WASHINGTON FAIR 71 69 93 CALM 30.11S WHITEVILLE FAIR 72 70 94 CALM 30.13S $$ AMZ130-135-150-152-154-156-158-170-250-252-270-ANZ085-086-088-633-658-670-210700- MARINE OBSERVATIONS STATION/POSITION TIME TEMP WIND PRES WAVE SWELL AIR SEA DIR/SP/G HT/PER HT/PER (UTC) (F) (DEG/KT/KT) (MB) (FT/S) (FT/S) CHESAPEAKE LIGHT NOT AVBL 64 E VA BEACH 0550 71 67 220/ 12/ 14 1018.6 5/ 8 3/ 8 DUCK 0548 230/ 13/ 15 1018.5 2 E DUCK 0600 62 N/A 2/ 9 OREGON INLET 0542 76 220/ 13/ 17 1019.2 13E OREGON INLT 0548 64 N/A 4/ 6 3/ 7 HATTERAS CG 0548 77 230/ 9/ 12 1019.7 DIAMOND BUOY 0600 75 75 230/ 14/ 16 1020.5 CAPE LOOKOUT 0600 230/ 8/ 11 1020.8 BEAUFORT LAB 0542 76 230/ 5/ 10 1020.8 30 SE NEW RVR IN 0508 75 210/ 14/ 17 1020.5 30 SE NEW RVR IN 0600 76 N/A 5/ 9 2/11 27 SE WRIGHTSVLE 0508 73 74 210/ 12/ 17 1020.8 5 SE WRIGHTSVLE 0508 73 71 360/ 10/ 12 1020.2 225 S CAPE HAT 0600 77 160/ 12/ 14 1022.0 41 SE CHARLESTON 0550 75 110/ 4/ 6 1020.8 6/ 9 5/ 9 $$

USA.gov is the U.S. government's official web portal to all federal, state and local government web resources and services.